Starlink 5391

operational
NORAD ID: 54833 Int'l Des: 2022-177 Owner: SPXS Country: US Constellation: starlink
LEOCIRCULAR

About Starlink 5391

Description loading...

Live Position

Loading 3D Globe...

Upcoming Passes

Altitude History

Altitude vs Time

uPlot chart will show altitude changes over time

Two-Line Element Set

1 54833U 22177P 25301.51612322 -.00000097 00000-0 78793-5 0 9991
2 54833 43.0022 131.4685 0001216 270.6906 89.3797 15.02536275157073
Epoch: Oct 28, 2025 • Age: 27 hours

Current Status

Altitude 571.5 km
Velocity 7.58 km/s
Sub-Earth Point -42.85°S, 122.59°E
Launch Date Dec 28, 2022
Age 2.8 years
Type internet

Technical Details

Classification Payload
Mass 305.00 kg
Dry Mass 290.00 kg
Total Mass 305.00 kg
Length 0.20 m
Diameter 2.80 m
Span 9.00 m
Shape Box + pan
Manufacturer SPXS
Bus Type Starlink
Phase Status In Orbit
Owner/State SPXS/US

Large Constellations

Loading constellations...